Voltar ao catálogo

HULIANWANG DIGUI-21

AtivoComunicaçõesPO
NORAD 63688·PAYLOAD·🇨🇳 China

Lançado Apr 28, 2025 de Wenchang Space Launch Site

Loading…

Próximas Passagens (próximas 24 horas)

TLE

AtualizadoSource: Space-Track

Época: Sep 14, 2026, 22:26 UTC

1 63688U 25086B   26257.93474109  .00000052  00000-0  87738-4 0  9995
2 63688  86.5018 282.9811 0002082  80.9894 279.1476 13.24413419 66743

Acompanhe HULIANWANG DIGUI-21 em tempo real com AllMySat

Download on the App Store